This is the latest recevied weather packets stored in our database for station/object EA1BQO-1. If no packets are shown the sender has not sent any weather packets the latest 1 day(s).
| Time | Temp. | Humidity | Pressure | Rain* | Wind** | Luminosity | Snow |
|---|---|---|---|---|---|---|---|
| 1836274358 | 16.11° C | 71% | 1017.1 hPa | 0 mm | 0.89 m/s, 43° | - | - |
| 1836274208 | 16.11° C | 71% | 1017 hPa | 0 mm | 0.89 m/s, 89° | - | - |
| 1778060342 | 12.78° C | 60% | 1010.8 hPa | 0 mm | 0.89 m/s, 226° | - | - |
| 1778059742 | 12.78° C | 61% | 1010.8 hPa | 0 mm | 0 m/s | - | - |
| 1778059142 | 13.33° C | 62% | 1010.8 hPa | 0 mm | 1.34 m/s, 252° | - | - |
| 1778058542 | 13.33° C | 70% | 1010.9 hPa | 0 mm | 0 m/s | - | - |
| 1778057942 | 12.22° C | 73% | 1010.9 hPa | 0 mm | 0 m/s | - | - |
| 1778057342 | 12.22° C | 75% | 1010.9 hPa | 0 mm | 0.45 m/s, 249° | - | - |
| 1778056742 | 11.67° C | 82% | 1010.8 hPa | 0 mm | 0 m/s | - | - |
| 1778056142 | 11.11° C | 81% | 1010.9 hPa | 0 mm | 1.34 m/s, 287° | - | - |
| 1778055542 | 11.11° C | 86% | 1010.9 hPa | 0 mm | 0 m/s | - | - |
| 1778054942 | 10.56° C | 87% | 1011 hPa | 0 mm | 0.89 m/s, 281° | - | - |
| 1778054342 | 10.56° C | 91% | 1011.2 hPa | 0 mm | 0 m/s | - | - |
| 1778053742 | 10.56° C | 96% | 1011.2 hPa | 0 mm | 0 m/s | - | - |
| 1778053142 | 9.44° C | 99% | 1011 hPa | 0 mm | 0 m/s | - | - |
| 1778052542 | 8.33° C | 99% | 1011 hPa | 0 mm | 0 m/s | - | - |
| 1778051942 | 8.33° C | 99% | 1011 hPa | 0 mm | 0.45 m/s, 57° | - | - |
| 1778051342 | 7.78° C | 99% | 1011 hPa | 0 mm | 0.45 m/s, 112° | - | - |
| 1778050742 | 7.22° C | 99% | 1011.1 hPa | 0 mm | 0.45 m/s, 94° | - | - |
| 1778050142 | 6.67° C | 99% | 1011.1 hPa | 0 mm | 0.45 m/s, 76° | - | - |
| 1778049542 | 5.56° C | 99% | 1011.2 hPa | 0 mm | 0 m/s | - | - |
| 1778048942 | 5.56° C | 99% | 1011.2 hPa | 0 mm | 0 m/s | - | - |
| 1778048342 | 5.56° C | 99% | 1011.2 hPa | 0 mm | 0 m/s | - | - |
| 1778047742 | 4.44° C | 99% | 1011.2 hPa | 0 mm | 0 m/s | - | - |
| 1778047142 | 4.44° C | 99% | 1011.1 hPa | 0 mm | 0 m/s | - | - |
* Rain latest hour (hover to see other rain measurements)
** Current wind speed in m/s (hover to see current wind gust speed)